Location: Borowce
(50.8255°N, 19.6209°E)
Time: 17:45:02
(UTC+00:00)

Cosmos 2369 - Pass Details

Date: 19 May 2025
Orbit: 840 x 853 km, 71.0° (Epoch: 20 June)

Event Time Altitude Azimuth Distance (km) Brightness Sun altitude
Rises 21:31:10 0° 326° (NNW) 3,415 8.3 -17.7°
Reaches altitude 10° 21:33:43 10° 321° (NW) 2,474 7.2 -17.8°
Maximum altitude 21:39:05 45° 250° (WSW) 1,130 4.3 -18.0°
Enters shadow 21:41:42 27° 195° (SSW) 1,557 4.6 -18.1°
